www.pogodaiklimat.ru

Погода и климат >> Архив погоды >> Индонезия >> Сурабая Перак


ПОГОДА в Сурабая Перак

  • Прогноз погоды в Сурабая Перак
  • Монитор погоды в Сурабая Перак

АРХИВ ПОГОДЫ в Сурабая Перак

Время (UTC), дата Ветер
(напр.,м/с)
 
Видим.   Явления Облачность Т
(С)
Тd
(С)
f
(%)
Тe
(С)
Тes
(С)
Комфортность P
(гПа)
Po
(гПа)
Тmin
(С)
Tmax
(С)
R
(мм)
R24
(мм)
S
(см)
18 13.09 штиль 0 9000 м 8/0
[Ci fib]
+26.4 +21.6 75 +34 +34 очень
душно
1013.2 1012.8
21 13.09 штиль 0 9000 м 9/6 600 м
[Cu Sc Ci fib]
+25.6 +20.7 74 +32 +32 очень
душно
1013.4 1013.0
00 14.09 штиль 0 10 км 4/0
[Ci fib]
+25.2 +20.6 76 +31 +35 очень
душно
1014.7 1014.3 +24.2
03 14.09 В 3 11 км ясно +30.8 +20.9 56 +38 +55 опасность
солнечного
удара
1014.2 1013.7
06 14.09 В 4 12 км 1/1 600 м
[Cu hum]
+33.0 +18.9 43 +38 +49 очень
душно
1011.8 1011.3
09 14.09 ЮВ 3 11 км 5/3 600 м
[Cu hum Ac trans Ci fib]
+30.8 +19.6 51 +37 +38 очень
душно
1011.1 1010.7
12 14.09 В 4 9000 м 5/1 600 м
[Cu hum Ci sp]
+28.4 +22.3 70 +37 +37 очень
душно
1012.5 1012.2 +33.0
15 14.09 В 3 9000 м 3/0
[Ci fib]
+27.4 +21.9 72 +35 +35 очень
душно
1013.0 1012.7
18 14.09 В 3 9000 м 1/1 600 м
[Cu hum]
+26.6 +22.4 78 +35 +35 очень
душно
1011.5 1011.2
21 14.09 штиль 0 9000 м 3/1 600 м
[Cu hum Ci fib]
+26.0 +22.4 81 +34 +34 очень
душно
1011.9 1011.6
00 15.09 штиль 0 10 км 3/3 600 м
[Cu hum]
+25.7 +21.4 77 +33 +36 очень
душно
1013.7 1013.3 +25.1
03 15.09 В 2 12 км 1/1 600 м
[Cu hum]
+30.6 +20.9 56 +38 +56 опасность
солнечного
удара
1013.0 1012.6
06 15.09 ЮВ 4 12 км 1/1 600 м
[Cu hum]
+32.8 +20.2 48 +39 +52 опасность
солнечного
удара
1010.2 1009.8
09 15.09 ЮВ 6 10 км 1/1 600 м
[Cu hum]
+30.8 +21.9 59 +39 +41 очень
душно
1009.3 1008.8
12 15.09 ЮВ 5 8000 м ясно +28.2 +22.0 69 +36 +36 очень
душно
1010.9 1010.4 +33.1
15 15.09 В 4 8000 м 3/3 600 м
[Cu hum]
+27.2 +22.2 74 +35 +35 очень
душно
1012.1 1011.7
18 15.09 В 3 8000 м 5/3 600 м
[Cu hum Ci fib]
+26.6 +22.4 78 +35 +35 очень
душно
1011.1 1010.6
21 15.09 В 1 8000 м 5/3 600 м
[Cu hum Ci fib]
+25.8 +23.2 86 +35 +35 очень
душно
1011.0 1010.6
00 16.09 В 2 9000 м 4/3 600 м
[Cu hum Ci fib]
+27.2 +22.5 76 +36 +38 очень
душно
1012.9 1012.5 +25.6
03 16.09 В 4 10 км 6/5 600 м
[Cu hum Ci fib]
+31.3 +22.6 60 +41 +47 опасность
перегрева
1012.4 1012.0
06 16.09 В 8 12 км 3/1 600 м
[Cu hum Ci fib]
+32.9 +20.5 48 +40 +43 очень
душно
1009.8 1009.4
09 16.09 В 3 12 км 1/1 600 м
[Cu hum]
+31.7 +18.3 45 +36 +39 очень
душно
1008.9 1008.5
12 16.09 ЮВ 4 9000 м 3/0
[Ci fib]
+28.3 +23.1 73 +38 +38 очень
душно
1010.6 1010.2 +33.0
15 16.09 В 2 9000 м 6/5 600 м
[Cu hum As trans]
+27.4 +23.0 77 +37 +37 очень
душно
1012.2 1011.7
18 16.09 ЮВ 2 9000 м 4/3 600 м
[Cu hum As trans]
+26.8 +22.3 76 +35 +35 очень
душно
1011.8 1011.3
21 16.09 В 3 9000 м 5/4 600 м
[Cu hum As trans]
+26.6 +22.3 77 +35 +35 очень
душно
1012.1 1011.7
00 17.09 ЮВ 2 8000 м 5/4 600 м
[Cu hum Ci fib]
+26.6 +22.4 78 +35 +37 очень
душно
1013.3 1012.8 +26.0
03 17.09 В 1 10 км 6/0
[Ci fib]
+31.6 +20.9 53 +39 +58 опасность
солнечного
удара
1013.2 1012.8
06 17.09 В 4 12 км 3/0
[Ci fib]
+33.9 +19.9 44 +40 +53 опасность
солнечного
удара
1010.5 1010.0
09 17.09 В 4 11 км 5/3 600 м
[Cu hum Ci fib]
+31.8 +21.1 53 +39 +41 очень
душно
1010.2 1009.8
12 17.09 В 3 10 км 3/0
[Ci fib]
+28.6 +21.9 67 +37 +37 очень
душно
1012.6 1012.1 +34.2
15 17.09 В 2 10 км 3/3 600 м
[Cu hum Ci fib]
+27.6 +23.2 77 +37 +37 очень
душно
1013.6 1013.2
18 17.09 ЮВ 2 10 км 6/5
[Cu Sc Ci fib]
+27.0 +23.1 79 +36 +36 очень
душно
1012.9 1012.5
21 17.09 ЮВ 2 9000 м 3/0
[Ci fib]
+26.4 +22.5 79 +35 +35 очень
душно
1013.2 1012.6
00 18.09 ЮЗ 3 9000 м 3/0
[Ci fib]
+26.4 +21.9 76 +34 +37 очень
душно
1014.2 1013.8 +25.6
03 18.09 В 5 11 км 3/3 600 м
[Cu hum]
+31.4 +21.9 57 +40 +47 очень
душно
1013.7 1013.3
06 18.09 В 4 12 км 3/1 600 м
[Cu hum Ci fib]
+33.4 +21.1 49 +41 +52 опасность
перегрева
1011.5 1011.0
09 18.09 В 4 11 км 3/1 600 м
[Cu hum Ci fib]
+31.4 +20.3 52 +38 +40 очень
душно
1010.9 1010.4
12 18.09 В 2 8000 м 4/1 600 м
[Cu hum Ci fib]
+28.8 +21.5 65 +37 +37 очень
душно
1012.3 1011.8 +33.6
15 18.09 В 2 8000 м 3/1 600 м
[Cu hum Ci fib]
+27.9 +22.6 73 +37 +37 очень
душно
1013.6 1013.1
18 18.09 штиль 0 7000 м 3/1 600 м
[Cu hum Ci fib]
+27.3 +23.0 77 +36 +36 очень
душно
1012.5 1012.0
21 18.09 штиль 0 7000 м 4/3 600 м
[Cu hum Ci fib]
+25.4 +21.4 79 +32 +32 очень
душно
1012.8 1012.4
00 19.09 Ю 2 9000 м 5/3 600 м
[Cu hum Ci fib]
+25.5 +21.5 79 +33 +35 очень
душно
1014.2 1013.8 +24.6
03 19.09 В 3 10 км 5/3 600 м
[Cu hum Ci fib]
+31.4 +21.3 55 +39 +49 очень
душно
1014.0 1013.5
06 19.09 В 3 10 км 4/3 600 м
[Cu hum Ci fib]
+33.5 +19.7 44 +39 +50 очень
душно
1011.5 1011.0
09 19.09 В 6 12 км 3/1 600 м
[Cu hum Ci fib]
+31.8 +19.1 47 +37 +38 очень
душно
1010.7 1010.2
12 19.09 В 4 8000 м 3/0
[Ac trans]
+28.6 +19.8 59 +35 +35 очень
душно
1012.2 1011.7 +34.0
15 19.09 В 3 8000 м 3/0
[Ac trans]
+27.7 +22.3 72 +36 +36 очень
душно
1013.1 1012.6
18 19.09 штиль 0 8000 м ясно +26.7 +22.1 76 +35 +35 очень
душно
1012.1 1011.7
21 19.09 штиль 0 8000 м ясно +24.6 +20.6 78 +31 +31 очень
душно
1011.9 1011.5
00 20.09 ЮВ 1 10 км 1/0
[Ci fib]
+25.2 +21.4 79 +32 +36 очень
душно
1013.5 1013.1 +23.6
03 20.09 ЮВ 3 12 км 1/0
[Ci fib]
+32.0 +19.7 48 +38 +55 опасность
солнечного
удара
1013.0 1012.6
06 20.09 ЮВ 5 12 км 1/0
[Ci fib]
+34.4 +17.8 37 +38 +47 очень
душно
1010.4 1010.1
09 20.09 В 5 12 км 1/1 600 м
[Cu hum Ci fib]
+32.5 +18.1 42 +37 +38 очень
душно
1009.4 1009.0
12 20.09 В 3 9000 м 1/0
[Ci fib]
+29.2 +18.9 54 +35 +35 очень
душно
1011.1 1010.7 +34.6
15 20.09 В 2 9000 м ясно +27.9 +22.9 74 +37 +37 очень
душно
1012.4 1012.0

 

Местоположение метеостанции Сурабая Перак (Индонезия): широта -7.22 долгота 112.71 высота над уровнем моря 3 м.

В архиве по умолчанию представлена погода в Сурабая Перак за последнюю неделю. Архивные данные за месяц целиком и за предыдущие месяцы, начиная с января 2011 года, Вы можете получить, выбрав интересующий диапазон дат из раскрывающегося списка и нажав кнопку "Ввод!".


*Определитесь, кто Вы:
робот инопланетянин человек

Внимание! Время в таблицах - всемирное. Для получения местного времени необходимо прибавить поправку, которая равна 7 ч.

Смотрите также архив погоды в соседних городах и на ближайших метеорологических станциях:

Погода в Аэропорту Джуанда (Индонезия) (18 км)
Погода в Сурабая Геданган (Индонезия) (110 км)
Погода в Калиянджете (Индонезия) (139 км)
Погода в Сангкапуре (Индонезия) (153 км)
Погода в Банюванги (Индонезия) (215 км)
Погода в Семаранге (Индонезия) (255 км)
Погода в Аэропорту Ахмад Яни (Индонезия) (259 км)
Погода в Денпасаре (Индонезия) (319 км)
Погода в Тегале (Индонезия) (395 км)
Погода в Матараме (Индонезия) (397 км)

Пояснения к столбцам:

Ветер - указаны скорость ветра в м/с - средняя за 10 мин, порывы в срок и между сроками (в фигурных скобках) и направление, откуда дует ветер: С - северный, СВ - северо-восточный, В - восточный, ЮВ - юго-восточный, Ю - южный, ЮЗ - юго-западный, З - западный, СЗ - северо-западный.
Видимость - горизонтальная дальность видимости в метрах или километрах. При видимости от 1 до 10 км при отсутствии осадков обычно наблюдается дымка, при ухудшении видимости до 1 км и менее - туман. В сухую погоду видимость может ухудшаться дымом, пылью или мглою.
Явления - указаны атмосферные явления, наблюдавшиеся в срок или в последний час перед сроком; фигурными скобками обозначены явления, наблюдавшиеся между сроками (за 1-3 часа до срока); квадратными скобками обозначены град или гололедные отложения с указанием их диаметра в мм.
Облачность - указаны через наклонную черту общая и нижняя облачность в баллах и высота нижней границы облаков в метрах; квадратными скобками обозначены формы облаков: Ci - перистые, Cs - перисто-слоистые, Cc - перисто-кучевые, Ac - высококучевые, As - высокослоистые, Sc - слоисто-кучевые, Ns - слоисто-дождевые, Cu - кучевые, Cb - кучево-дождевые. Подробнее классификацию облаков см. в Атласе облаков (PDF).
T - Температура воздуха - температура, измеренная на высоте 2 м над землей.
Td - Температура точки росы - температура, при понижении до которой содержащийся в воздухе водяной пар достигнет насыщения.
f - Относительная влажность воздуха - влажноcть воздуха, измеренная на высоте 2 м над землей.
Te - Эффективная температура - температура, которую ощущает одетый по сезону человек в тени. Характеристика душности погоды. При расчете учитывается влияние влажности воздуха и скорости ветра на теплоощущения человека.
Tes - Эффективная температура на солнце - температура, которую ощущает человек, с поправкой на солнечный нагрев. Характеристика знойности погоды. Зависит от высоты солнца над горизонтом, облачности и скорости ветра. Ночью, в пасмурную погоду, а также при ветре 12 м/с и более поправка равна нулю.
P - Атмосферное давление - приведенное к уровню моря атмосферное давление.
Po - Атмосферное давление - измеренное на уровне метеостанции атмосферное давление.
Tmin - Минимальная температура - минимум температуры воздуха на высоте 2 м над землей.
Tmax - Максимальная температура - максимум температуры воздуха на высоте 2 м над землей.
R - Количество осадков - Количество выпавших осадков за период времени, мм. При наведении курсора мыши на число - период времени, за который выпало указанное количество осадков.
R24 - Количество осадков - Количество выпавших осадков за 24 часа, мм.
S - Снежный покров - Высота снежного покрова, см. При наведении курсора мыши на число - состояние снежного покрова и степень покрытия местности в баллах.